Regional Weather Roundup
Issued by NWS

Home | Current Version | Previous Version | Graphics & Text | Print | Product List | Glossary On
Versions: 1 2 3 4 5 6 7 8 9 10 11 12 13 14 15 16 17 18 19 20 21 22 23 24 25 26 27 28 29 30 31 32 33 34 35 36 37 38 39 40 41 42 43 44 45 46 47 48 49 50
000
ASUS43 KDMX 310508
RWRIA

WEATHER ROUNDUP FOR IOWA
NATIONAL WEATHER SERVICE DES MOINES IA
1200 AM CDT TUE MAY 31 2016

NOTE: "FAIR" INDICATES FEW OR NO CLOUDS BELOW 12,000 FEET WITH NO
SIGNIFICANT WEATHER AND/OR OBSTRUCTIONS TO VISIBILITY.

* - THESE STATIONS ARE NOT NWS STATIONS...THUS NOT UNDER NWS
QUALITY CONTROL.  THEY ALSO DO NOT REPORT WEATHER SUCH
AS PRECIPITATION OR FOG.

IAZ001>003-012>014-020>022-031>034-043>046-310600-
   NORTHWEST IOWA

CITY           SKY/WX    TMP DP  RH WIND       PRES   REMARKS
CARROLL *      CLOUDY    70  57  64 S7        29.91S
CHEROKEE *     PTCLDY    68  55  64 S15       29.86S
DENISON *      MOCLDY    66  61  82 S17G29    29.87F
LE MARS *      CLEAR     66  59  77 S9        29.84F
ORANGE CITY *  CLEAR     66  57  72 S14G23    29.83F
SHELDON *      CLEAR     68  57  68 S17G25    29.82F
SIOUX CITY     CLOUDY    70  59  68 S16       29.83F
SPENCER        CLOUDY    68  57  68 SE12      29.87F
STORM LAKE *   MOCLDY    68  57  68 S14G23    29.89F
$$

IAZ055>058-069>071-079>083-090>094-310600-
   SOUTHWEST IOWA

CITY           SKY/WX    TMP DP  RH WIND       PRES   REMARKS
ATLANTIC *     MOCLDY    66  61  82 SW12      29.90F
AUDUBON *      CLEAR     68  61  77 SW10      29.91F
CLARINDA *       N/A     66  64  94 MISG      29.94F
COUNCIL BLFS * PTCLDY    66  63  88 S12       29.90F
CRESTON *      CLOUDY    66  63  88 CALM      29.96R
HARLAN  *      CLEAR     68  61  77 SW12G18   29.94S
LAMONI         PTCLDY    65  60  84 S10       29.95S
RED OAK *      CLOUDY    68  64  88 S10       29.91F
SHENANDOAH *   CLEAR     70  66  88 S9        29.93F
$$

IAZ047>049-059>061-072>074-084-310600-
   CENTRAL IOWA

CITY           SKY/WX    TMP DP  RH WIND       PRES   REMARKS
AMES           CLOUDY    64  62  93 E5        29.95R
ANKENY *       CLEAR     68  59  73 CALM      29.95R
BOONE *        MOCLDY    64  61  88 SE5       29.93S
CHARITON *     MOCLDY    64  61  88 SE8       29.96R
DES MOINES     MOCLDY    69  56  62 SE6       29.94R
GRINNELL*      CLOUDY    68  59  73 NE10      29.98R
KNOXVILLE *    CLEAR     68  61  77 SE7       29.94S
MARSHALLTOWN   CLOUDY    66  60  81 E12       29.96R
NEWTON *       CLOUDY    68  63  83 NE6       29.97R
PELLA *        MOCLDY    67  60  78 SE3       29.97R
PERRY *          N/A     66  61  82 E5        29.93R
$$

IAZ004>006-015-016-023>025-035-036-310600-
   NORTH CENTRAL IOWA

CITY           SKY/WX    TMP DP  RH WIND       PRES   REMARKS
ALGONA *       PTCLDY    66  59  77 E13G21    29.92F
CLARION *      CLEAR     63  61  94 E13       29.92F
ESTHERVILLE    CLOUDY    65  56  72 SE21      29.89F
FORT DODGE *   CLOUDY    64  57  77 CALM      29.93F
MASON CITY     LGT RAIN  64  61  90 SE3       29.98F
FOREST CITY *  CLOUDY    63  61  94 E7        29.94F
WEBSTER CITY * MOCLDY    63  63 100 NE3       29.91S
IOWA FALLS *     N/A     64  61  88 E9        29.97R
$$

IAZ007>011-017>019-026>030-037>042-050>054-066-310600-
   NORTHEAST IOWA

CITY           SKY/WX    TMP DP  RH WIND       PRES   REMARKS
CEDAR RAPIDS   MOCLDY    66  63  90 N17G26    29.98R
CHARLES CITY * LGT RAIN  64  64 100 SE12      30.00F
CLINTON *      CLEAR     71  62  73 S5        29.97S
DECORAH *      RAIN      63  61  94 S12G21    30.00S
DUBUQUE        CLOUDY    66  62  87 NW10      29.99R
MONTICELLO *   MOCLDY    68  61  77 N12G18    29.98R
OELWEIN *      LGT RAIN  63  63 100 NE10      30.03F
WATERLOO       CLOUDY    63  60  90 E9        29.98F
$$

IAZ064-065-067-068-078-310600-
   EAST CENTRAL IOWA

CITY           SKY/WX    TMP DP  RH WIND       PRES   REMARKS
DAVENPORT      CLEAR     72  61  68 S3        29.97S
IOWA CITY      PTCLDY    69  63  81 W5        29.98R
MT. PLEASANT * CLEAR     72  64  78 SW6       29.98R
MUSCATINE *    CLEAR     72  64  78 SW5       29.97R
QUAD CITIES    CLEAR     68  61  78 CALM      29.96R
$$

IAZ062-063-075>077-085>089-095>099-310600-
   SOUTHEAST IOWA

CITY           SKY/WX    TMP DP  RH WIND       PRES   REMARKS
BURLINGTON     CLEAR     71  64  78 W7        29.97R
FAIRFIELD *      N/A    N/A N/A N/A MISG        N/A
FORT MADISON * CLEAR     70  61  73 SW5       29.99R
KEOKUK *       CLEAR     70  59  68 W6        29.97R
OSKALOOSA *      N/A     66  59  77 SW6       29.98R
OTTUMWA        PTCLDY    66  59  78 SW5       29.96S
WASHINGTON *   CLEAR     68 -38   1 SW6       29.99R
$$

ABBREVIATIONS USED IN REMARKS
   TC - TEMPERATURES IN CELSIUS
  WCI - WIND CHILL INDEX
   HX - HEAT INDEX
  VSB - VISIBILITY
$$





USA.gov is the U.S. government's official web portal to all federal, state and local government web resources and services.